Location: Rzeszów
(50.0490°N, 21.9990°E)
Time: 11:11:24
(UTC+02:00)

ISS - Visible Passes

Search period start: 22 September 2018 00:00
Search period end: 02 October 2018 00:00
Orbit: 403 x 408 km, 51.6° (Epoch: 22 September)

Date Brightness Start Highest point End Pass type
(mag) Time Alt. Az. Time Alt. Az. Time Alt. Az.
22 Sep -1.7 20:27:46 10° SSW 20:28:50 17° SSW 20:28:50 17° SSW visible
23 Sep -2.3 19:36:30 10° SSW 19:39:00 20° SE 19:39:35 19° SE visible
23 Sep -0.9 21:11:50 10° WSW 21:12:16 13° WSW 21:12:16 13° WSW visible
24 Sep -3.4 20:20:02 10° SW 20:22:49 49° S 20:22:49 49° S visible
25 Sep -3.1 19:28:22 10° SW 19:31:26 36° SSE 19:33:11 20° E visible
25 Sep -1.5 21:04:31 10° W 21:05:53 23° W 21:05:53 23° W visible
26 Sep -4.0 20:12:33 10° WSW 20:15:52 87° SSE 20:16:08 74° E visible
27 Sep -3.8 19:20:39 10° WSW 19:23:56 64° SSE 19:26:17 17° ENE visible
27 Sep -1.8 20:57:12 10° W 20:58:58 28° WNW 20:58:58 28° WNW visible
28 Sep -3.7 20:05:10 10° W 20:08:28 71° N 20:09:02 55° NE visible
29 Sep -3.8 19:13:09 10° WSW 19:16:28 85° NNW 19:19:03 16° ENE visible
29 Sep -1.9 20:49:49 10° WNW 20:51:43 31° WNW 20:51:43 31° WNW visible
30 Sep -3.6 19:57:47 10° W 20:01:04 63° N 20:01:42 50° NE visible
01 Oct -3.6 19:05:43 10° W 19:09:01 67° N 19:11:39 15° ENE visible
01 Oct -2.0 20:42:21 10° WNW 20:44:18 33° WNW 20:44:18 33° WNW visible
